Flag for U.S.A. Weather past 2 weeks in Honolulu, Hawaii, U.S.A.

Now
84 °F

Scattered clouds.


Feels Like: 87 °F
Forecast: 75 / 86 °F
Wind: 13 mph from Northeast

Location: Honolulu International Airport

Current Time: Aug 1, 2014 at 6:31:57 PM

Latest Report: Aug 1, 2014 at 5:53 PM


Visibility: 10 mi

Pressure: 29.93 "Hg

Humidity: 59%

Dew point: 68 °F

Location of HonoluluLocation

Historic Weather in Honolulu — Graph

°F

Honolulu temperature yesterday

Maximum temperature yesterday: 89 °F (at 2:53 PM)
Minimum temperature yesterday: 77 °F (at 5:53 AM)
Average temperature yesterday: 82 °F

Past Weeks' High & Low Weather Summary

 TemperatureHumidityPressure
High90 °F (Jul 26, 12:53 PM)97% (Jul 19, 11:53 PM)30.08 "Hg (Jul 19, 11:53 PM)
Low73 °F (Jul 20, 3:53 AM)42% (Jul 18, 1:53 PM)29.90 "Hg (Jul 20, 2:53 AM)
Average81 °F63%29.98 "Hg
* Reported Jul 17 4:53 PM — Aug 1 4:53 PM, Honolulu, Weather by CustomWeather, © 2014

Note: Actual official high and low records may vary slightly from our data, if they occured in-between our weather recording intervals... More about our weather records

Advertising

Honolulu weather history for previous 24 hours

 ConditionsComfort  
Time TempWeatherWind HumidityBarometerVisibility
4:53 PM
Aug 1
86 °FScattered clouds.20 mph55%29.92 "Hg10 mi
3:53 PM88 °FScattered clouds.14 mph48%29.93 "Hg10 mi
3:20 PM88 °FPassing clouds.16 mph49%29.93 "Hg10 mi
2:53 PM88 °FScattered clouds.17 mph46%29.94 "Hg10 mi
1:53 PM88 °FScattered clouds.18 mph48%29.96 "Hg10 mi
12:53 PM88 °FScattered clouds.18 mph48%29.97 "Hg10 mi
11:53 AM87 °FScattered clouds.17 mph48%29.98 "Hg10 mi
10:53 AM87 °FScattered clouds.15 mph50%29.99 "Hg10 mi
9:53 AM85 °FScattered clouds.17 mph53%29.99 "Hg10 mi
8:53 AM84 °FScattered clouds.9 mph55%30.00 "Hg10 mi
7:53 AM82 °FScattered clouds.9 mph63%30.00 "Hg10 mi
6:53 AM79 °FScattered clouds.8 mph69%29.98 "Hg10 mi
5:53 AM78 °FPassing clouds.8 mph71%29.97 "Hg10 mi
4:53 AM78 °FPassing clouds.7 mph66%29.96 "Hg10 mi
3:53 AM78 °FPassing clouds.7 mph69%29.96 "Hg10 mi
2:53 AM78 °FPassing clouds.9 mph69%29.96 "Hg10 mi
1:53 AM79 °FPassing clouds.10 mph69%29.97 "Hg10 mi
12:53 AM79 °FPassing clouds.9 mph69%29.98 "Hg10 mi
11:53 PM
Jul 31
79 °FPassing clouds.6 mph67%30.00 "Hg10 mi
10:53 PM79 °FPassing clouds.12 mph67%30.01 "Hg10 mi
9:53 PM79 °FPassing clouds.13 mph67%30.00 "Hg10 mi
8:53 PM80 °FPassing clouds.14 mph64%29.99 "Hg10 mi
7:53 PM80 °FPassing clouds.14 mph64%29.98 "Hg10 mi
6:53 PM82 °FScattered clouds.14 mph58%29.96 "Hg10 mi
Weather by CustomWeather, © 2014

See weather overviewHow to use our weather pages